Wetterdaten: Sonntag, 09.03.2014
Datum Zeit Temperatur Luftfeuchte Luftdruck Regen Wind Richtung Richtung Taupunkt Windchill Windben
09.03.2014 00:00 -2,2 C 86 % 1029,2 hPa 0,0 l/m 0,3 km/h (0 Bft) W 270 -4,2 C -2,5 C 0,0 km/h (0 Bft)
09.03.2014 00:05 -2,6 C 86 % 1029,2 hPa 0,0 l/m 0,0 km/h (0 Bft) N 360 -4,6 C -2,6 C 0,0 km/h (0 Bft)
09.03.2014 00:10 -2,7 C 86 % 1029,1 hPa 0,0 l/m 0,0 km/h (0 Bft) N 360 -4,7 C -2,9 C 0,0 km/h (0 Bft)
09.03.2014 00:15 -2,8 C 85 % 1029,1 hPa 0,0 l/m 0,0 km/h (0 Bft) N 360 -5,0 C -3,0 C 0,0 km/h (0 Bft)
09.03.2014 00:20 -2,8 C 85 % 1029,1 hPa 0,0 l/m 0,0 km/h (0 Bft) N-NO 22 -5,0 C -3,1 C 0,0 km/h (0 Bft)
09.03.2014 00:25 -2,9 C 86 % 1029,1 hPa 0,0 l/m 0,0 km/h (0 Bft) N 360 -4,9 C -3,1 C 0,0 km/h (0 Bft)
09.03.2014 00:30 -3,1 C 86 % 1029,0 hPa 0,0 l/m 0,0 km/h (0 Bft) N-NW 337 -5,1 C -3,1 C 0,0 km/h (0 Bft)
09.03.2014 00:35 -3,0 C 86 % 1029,0 hPa 0,0 l/m 0,0 km/h (0 Bft) N-NW 337 -5,0 C -3,1 C 0,0 km/h (0 Bft)
09.03.2014 00:40 -3,0 C 86 % 1029,0 hPa 0,0 l/m 0,2 km/h (0 Bft) O-SO 112 -5,0 C -3,2 C 2,4 km/h (1 Bft)
09.03.2014 00:45 -2,9 C 86 % 1029,0 hPa 0,0 l/m 0,2 km/h (0 Bft) NW 315 -4,9 C -3,2 C 0,0 km/h (0 Bft)
09.03.2014 00:50 -2,6 C 87 % 1028,7 hPa 0,0 l/m 0,8 km/h (0 Bft) O 90 -4,5 C -3,0 C 4,5 km/h (1 Bft)
09.03.2014 00:55 -2,7 C 87 % 1028,7 hPa 0,0 l/m 0,6 km/h (0 Bft) NO 45 -4,6 C -3,0 C 0,0 km/h (0 Bft)
09.03.2014 01:00 -2,8 C 87 % 1028,7 hPa 0,0 l/m 0,0 km/h (0 Bft) W-NW 292 -4,7 C -2,9 C 0,0 km/h (0 Bft)
09.03.2014 01:05 -3,2 C 86 % 1028,7 hPa 0,0 l/m 0,0 km/h (0 Bft) W-NW 292 -5,2 C -3,2 C 0,0 km/h (0 Bft)
09.03.2014 01:10 -3,0 C 87 % 1028,6 hPa 0,0 l/m 0,0 km/h (0 Bft) NW 315 -4,9 C -3,4 C 0,0 km/h (0 Bft)
09.03.2014 01:15 -3,1 C 87 % 1028,6 hPa 0,0 l/m 0,0 km/h (0 Bft) W-NW 292 -4,9 C -3,5 C 0,0 km/h (0 Bft)
09.03.2014 01:20 -3,2 C 86 % 1028,6 hPa 0,0 l/m 0,0 km/h (0 Bft) W-NW 292 -5,2 C -3,7 C 0,0 km/h (0 Bft)
09.03.2014 01:25 -3,2 C 86 % 1028,6 hPa 0,0 l/m 0,0 km/h (0 Bft) W-NW 292 -5,2 C -3,6 C 0,0 km/h (0 Bft)
09.03.2014 01:30 -3,1 C 86 % 1028,6 hPa 0,0 l/m 0,0 km/h (0 Bft) W-NW 292 -5,1 C -3,6 C 0,0 km/h (0 Bft)
09.03.2014 01:35 -3,3 C 86 % 1028,6 hPa 0,0 l/m 0,0 km/h (0 Bft) W-NW 292 -5,3 C -3,7 C 0,0 km/h (0 Bft)
09.03.2014 01:40 -3,3 C 86 % 1028,6 hPa 0,0 l/m 0,0 km/h (0 Bft) N-NO 22 -5,3 C -3,6 C 0,0 km/h (0 Bft)
09.03.2014 01:45 -3,2 C 86 % 1028,6 hPa 0,0 l/m 0,0 km/h (0 Bft) N-NW 337 -5,2 C -3,6 C 0,0 km/h (0 Bft)
09.03.2014 01:50 -3,4 C 87 % 1028,6 hPa 0,0 l/m 0,0 km/h (0 Bft) N-NO 22 -5,2 C -3,7 C 0,0 km/h (0 Bft)
09.03.2014 01:55 -2,7 C 87 % 1028,6 hPa 0,0 l/m 0,2 km/h (0 Bft) O-SO 112 -4,6 C -3,7 C 3,2 km/h (1 Bft)
09.03.2014 02:00 -2,8 C 87 % 1028,6 hPa 0,0 l/m 0,5 km/h (0 Bft) N-NO 22 -4,7 C -3,3 C 0,0 km/h (0 Bft)
09.03.2014 02:05 -3,1 C 87 % 1028,6 hPa 0,0 l/m 0,5 km/h (0 Bft) NO 45 -4,9 C -3,3 C 0,0 km/h (0 Bft)
09.03.2014 02:10 -3,4 C 87 % 1028,7 hPa 0,0 l/m 0,0 km/h (0 Bft) NO 45 -5,2 C -3,5 C 0,0 km/h (0 Bft)
09.03.2014 02:15 -3,4 C 87 % 1028,7 hPa 0,0 l/m 0,0 km/h (0 Bft) NO 45 -5,2 C -3,7 C 0,0 km/h (0 Bft)
09.03.2014 02:20 -3,6 C 87 % 1028,7 hPa 0,0 l/m 0,0 km/h (0 Bft) N-NW 337 -5,4 C -3,8 C 0,0 km/h (0 Bft)
09.03.2014 02:25 -3,8 C 87 % 1028,7 hPa 0,0 l/m 0,0 km/h (0 Bft) N-NW 337 -5,6 C -3,8 C 0,0 km/h (0 Bft)
09.03.2014 02:30 -3,6 C 87 % 1028,6 hPa 0,0 l/m 0,0 km/h (0 Bft) N-NW 337 -5,4 C -3,9 C 0,0 km/h (0 Bft)
09.03.2014 02:35 -3,4 C 87 % 1028,6 hPa 0,0 l/m 0,0 km/h (0 Bft) N-NW 337 -5,2 C -3,9 C 0,0 km/h (0 Bft)
09.03.2014 02:40 -3,4 C 87 % 1028,6 hPa 0,0 l/m 0,0 km/h (0 Bft) N-NW 337 -5,2 C -3,8 C 0,0 km/h (0 Bft)
09.03.2014 02:45 -3,7 C 87 % 1028,6 hPa 0,0 l/m 0,0 km/h (0 Bft) N-NW 337 -5,5 C -3,8 C 0,0 km/h (0 Bft)
09.03.2014 02:50 -3,7 C 87 % 1028,5 hPa 0,0 l/m 0,0 km/h (0 Bft) N-NW 337 -5,5 C -3,9 C 0,0 km/h (0 Bft)
09.03.2014 02:55 -3,7 C 87 % 1028,5 hPa 0,0 l/m 0,2 km/h (0 Bft) NO 45 -5,5 C -3,9 C 1,8 km/h (1 Bft)
09.03.2014 03:00 -3,4 C 87 % 1028,5 hPa 0,0 l/m 0,2 km/h (0 Bft) N-NO 22 -5,2 C -3,9 C 0,0 km/h (0 Bft)
09.03.2014 03:05 -3,5 C 87 % 1028,5 hPa 0,0 l/m 0,2 km/h (0 Bft) N-NO 22 -5,3 C -3,9 C 0,0 km/h (0 Bft)
09.03.2014 03:10 -3,6 C 87 % 1028,5 hPa 0,0 l/m 0,0 km/h (0 Bft) W-SW 247 -5,4 C -3,9 C 0,0 km/h (0 Bft)
09.03.2014 03:15 -3,5 C 87 % 1028,5 hPa 0,0 l/m 0,2 km/h (0 Bft) O 90 -5,3 C -3,8 C 0,0 km/h (0 Bft)
09.03.2014 03:20 -3,8 C 87 % 1028,5 hPa 0,0 l/m 0,2 km/h (0 Bft) O 90 -5,6 C -4,0 C 0,0 km/h (0 Bft)
09.03.2014 03:23 -3,9 C 87 % 1028,5 hPa 0,0 l/m 0,0 km/h (0 Bft) S-SO 157 -5,7 C -4,1 C 0,0 km/h (0 Bft)
09.03.2014 03:25 -3,9 C 87 % 1028,5 hPa 0,0 l/m 0,0 km/h (0 Bft) S-SO 157 -5,7 C -4,1 C 0,0 km/h (0 Bft)
09.03.2014 03:30 -3,7 C 87 % 1028,4 hPa 0,0 l/m 0,0 km/h (0 Bft) O-NO 67 -5,5 C -4,0 C 0,0 km/h (0 Bft)
09.03.2014 03:35 -3,6 C 87 % 1028,4 hPa 0,0 l/m 0,0 km/h (0 Bft) NW 315 -5,4 C -3,9 C 0,0 km/h (0 Bft)
09.03.2014 03:40 -3,8 C 87 % 1028,4 hPa 0,0 l/m 0,0 km/h (0 Bft) N-NW 337 -5,6 C -3,9 C 0,0 km/h (0 Bft)
09.03.2014 03:45 -3,9 C 87 % 1028,4 hPa 0,0 l/m 0,0 km/h (0 Bft) W-NW 292 -5,7 C -4,0 C 0,0 km/h (0 Bft)
09.03.2014 03:50 -4,0 C 87 % 1028,1 hPa 0,0 l/m 0,3 km/h (0 Bft) NW 315 -5,8 C -4,3 C 0,0 km/h (0 Bft)
09.03.2014 03:55 -4,0 C 87 % 1028,1 hPa 0,0 l/m 0,5 km/h (0 Bft) NO 45 -5,8 C -4,3 C 1,9 km/h (1 Bft)
09.03.2014 04:00 -3,7 C 87 % 1028,1 hPa 0,0 l/m 0,3 km/h (0 Bft) NO 45 -5,5 C -4,2 C 0,0 km/h (0 Bft)
09.03.2014 04:05 -3,8 C 87 % 1028,1 hPa 0,0 l/m 0,2 km/h (0 Bft) N-NW 337 -5,6 C -4,1 C 0,0 km/h (0 Bft)
09.03.2014 04:10 -4,0 C 87 % 1028,2 hPa 0,0 l/m 0,2 km/h (0 Bft) NO 45 -5,8 C -4,1 C 0,0 km/h (0 Bft)
09.03.2014 04:15 -4,1 C 87 % 1028,2 hPa 0,0 l/m 0,2 km/h (0 Bft) NO 45 -5,9 C -4,3 C 0,0 km/h (0 Bft)
09.03.2014 04:20 -4,2 C 87 % 1028,2 hPa 0,0 l/m 0,0 km/h (0 Bft) NO 45 -6,0 C -4,3 C 0,0 km/h (0 Bft)
09.03.2014 04:25 -4,2 C 87 % 1028,2 hPa 0,0 l/m 0,0 km/h (0 Bft) NO 45 -6,0 C -4,4 C 0,0 km/h (0 Bft)
09.03.2014 04:30 -4,4 C 87 % 1028,1 hPa 0,0 l/m 0,0 km/h (0 Bft) N-NO 22 -6,2 C -4,6 C 0,0 km/h (0 Bft)
09.03.2014 04:35 -4,4 C 87 % 1028,1 hPa 0,0 l/m 0,0 km/h (0 Bft) N-NO 22 -6,2 C -4,6 C 0,0 km/h (0 Bft)
09.03.2014 04:40 -4,4 C 87 % 1028,1 hPa 0,0 l/m 0,0 km/h (0 Bft) N-NO 22 -6,2 C -4,6 C 0,0 km/h (0 Bft)
09.03.2014 04:45 -4,4 C 87 % 1028,1 hPa 0,0 l/m 0,0 km/h (0 Bft) N-NO 22 -6,2 C -4,6 C 0,0 km/h (0 Bft)
09.03.2014 04:50 -4,5 C 87 % 1028,1 hPa 0,0 l/m 0,0 km/h (0 Bft) NO 45 -6,3 C -4,7 C 0,0 km/h (0 Bft)
09.03.2014 04:55 -4,5 C 87 % 1028,1 hPa 0,0 l/m 0,0 km/h (0 Bft) O-NO 67 -6,3 C -4,7 C 0,0 km/h (0 Bft)
09.03.2014 05:00 -4,5 C 87 % 1028,1 hPa 0,0 l/m 0,0 km/h (0 Bft) NO 45 -6,3 C -4,9 C 0,0 km/h (0 Bft)
09.03.2014 05:05 -4,5 C 87 % 1028,1 hPa 0,0 l/m 0,0 km/h (0 Bft) W-NW 292 -6,3 C -4,8 C 0,0 km/h (0 Bft)
09.03.2014 05:10 -4,4 C 87 % 1028,1 hPa 0,0 l/m 0,2 km/h (0 Bft) N-NO 22 -6,2 C -4,8 C 0,0 km/h (0 Bft)
09.03.2014 05:15 -4,6 C 87 % 1028,1 hPa 0,0 l/m 0,2 km/h (0 Bft) N 360 -6,4 C -4,6 C 0,0 km/h (0 Bft)
09.03.2014 05:20 -4,4 C 87 % 1028,1 hPa 0,0 l/m 0,0 km/h (0 Bft) N-NO 22 -6,2 C -4,5 C 0,0 km/h (0 Bft)
09.03.2014 05:25 -4,3 C 87 % 1028,1 hPa 0,0 l/m 0,0 km/h (0 Bft) N-NO 22 -6,1 C -4,5 C 0,0 km/h (0 Bft)
09.03.2014 05:30 -4,4 C 87 % 1028,0 hPa 0,0 l/m 0,0 km/h (0 Bft) N-NO 22 -6,2 C -4,5 C 0,0 km/h (0 Bft)
09.03.2014 05:35 -4,3 C 87 % 1028,0 hPa 0,0 l/m 0,0 km/h (0 Bft) N-NO 22 -6,1 C -4,7 C 0,0 km/h (0 Bft)
09.03.2014 05:40 -4,7 C 87 % 1028,0 hPa 0,0 l/m 0,0 km/h (0 Bft) N-NO 22 -6,5 C -4,8 C 0,0 km/h (0 Bft)
09.03.2014 05:45 -4,8 C 87 % 1028,0 hPa 0,0 l/m 0,0 km/h (0 Bft) N-NO 22 -6,6 C -4,9 C 0,0 km/h (0 Bft)
09.03.2014 05:50 -4,8 C 87 % 1028,2 hPa 0,0 l/m 0,0 km/h (0 Bft) N-NO 22 -6,6 C -4,8 C 0,0 km/h (0 Bft)
09.03.2014 05:55 -4,8 C 87 % 1028,2 hPa 0,0 l/m 0,0 km/h (0 Bft) N-NO 22 -6,6 C -4,8 C 0,0 km/h (0 Bft)
09.03.2014 06:00 -4,6 C 87 % 1028,2 hPa 0,0 l/m 0,0 km/h (0 Bft) N-NO 22 -6,4 C -4,9 C 0,0 km/h (0 Bft)
09.03.2014 06:05 -4,3 C 87 % 1028,2 hPa 0,0 l/m 0,0 km/h (0 Bft) N-NO 22 -6,1 C -4,9 C 0,0 km/h (0 Bft)
09.03.2014 06:10 -4,6 C 87 % 1028,0 hPa 0,0 l/m 0,0 km/h (0 Bft) N-NW 337 -6,4 C -4,8 C 0,0 km/h (0 Bft)
09.03.2014 06:15 -4,7 C 87 % 1028,0 hPa 0,0 l/m 0,0 km/h (0 Bft) N-NW 337 -6,5 C -4,7 C 0,0 km/h (0 Bft)
09.03.2014 06:20 -4,8 C 87 % 1028,0 hPa 0,0 l/m 0,0 km/h (0 Bft) N 360 -6,6 C -4,9 C 0,0 km/h (0 Bft)
09.03.2014 06:25 -4,7 C 87 % 1028,0 hPa 0,0 l/m 0,0 km/h (0 Bft) N-NW 337 -6,5 C -5,0 C 0,0 km/h (0 Bft)
09.03.2014 06:30 -4,7 C 87 % 1028,2 hPa 0,0 l/m 0,0 km/h (0 Bft) NW 315 -6,5 C -4,8 C 0,0 km/h (0 Bft)
09.03.2014 06:35 -4,8 C 87 % 1028,2 hPa 0,0 l/m 0,0 km/h (0 Bft) NW 315 -6,6 C -4,9 C 0,0 km/h (0 Bft)
09.03.2014 06:40 -4,7 C 87 % 1028,2 hPa 0,0 l/m 0,0 km/h (0 Bft) N 360 -6,5 C -4,9 C 0,0 km/h (0 Bft)
09.03.2014 06:45 -4,7 C 87 % 1028,2 hPa 0,0 l/m 0,2 km/h (0 Bft) NW 315 -6,5 C -4,9 C 0,0 km/h (0 Bft)
09.03.2014 06:50 -4,4 C 87 % 1028,5 hPa 0,0 l/m 0,5 km/h (0 Bft) N-NO 22 -6,2 C -4,7 C 0,0 km/h (0 Bft)
09.03.2014 06:55 -4,6 C 87 % 1028,5 hPa 0,0 l/m 0,3 km/h (0 Bft) N-NO 22 -6,4 C -4,7 C 0,0 km/h (0 Bft)
09.03.2014 07:00 -4,6 C 87 % 1028,5 hPa 0,0 l/m 0,0 km/h (0 Bft) N-NO 22 -6,4 C -4,8 C 0,0 km/h (0 Bft)
09.03.2014 07:05 -4,6 C 87 % 1028,5 hPa 0,0 l/m 0,0 km/h (0 Bft) N-NO 22 -6,4 C -4,9 C 0,0 km/h (0 Bft)
09.03.2014 07:10 -4,6 C 87 % 1028,3 hPa 0,0 l/m 0,0 km/h (0 Bft) N-NO 22 -6,4 C -4,9 C 0,0 km/h (0 Bft)
09.03.2014 07:15 -4,6 C 87 % 1028,3 hPa 0,0 l/m 0,0 km/h (0 Bft) N-NO 22 -6,4 C -4,9 C 0,0 km/h (0 Bft)
09.03.2014 07:20 -4,7 C 87 % 1028,3 hPa 0,0 l/m 0,0 km/h (0 Bft) N-NO 22 -6,5 C -4,9 C 0,0 km/h (0 Bft)
09.03.2014 07:25 -4,8 C 87 % 1028,3 hPa 0,0 l/m 0,0 km/h (0 Bft) N-NO 22 -6,6 C -4,9 C 0,0 km/h (0 Bft)
09.03.2014 07:30 -4,6 C 87 % 1028,5 hPa 0,0 l/m 0,0 km/h (0 Bft) N-NO 22 -6,4 C -4,8 C 0,0 km/h (0 Bft)
09.03.2014 07:35 -4,5 C 87 % 1028,5 hPa 0,0 l/m 0,0 km/h (0 Bft) N 360 -6,3 C -4,7 C 0,0 km/h (0 Bft)
09.03.2014 07:40 -4,4 C 87 % 1028,5 hPa 0,0 l/m 0,0 km/h (0 Bft) W-NW 292 -6,2 C -4,4 C 0,0 km/h (0 Bft)
09.03.2014 07:45 -4,1 C 87 % 1028,5 hPa 0,0 l/m 0,2 km/h (0 Bft) N-NO 22 -5,9 C -4,1 C 1,6 km/h (1 Bft)
09.03.2014 07:50 -3,9 C 88 % 1028,4 hPa 0,0 l/m 0,2 km/h (0 Bft) NO 45 -5,6 C -3,9 C 0,0 km/h (0 Bft)
09.03.2014 07:55 -3,9 C 88 % 1028,4 hPa 0,0 l/m 0,2 km/h (0 Bft) NO 45 -5,6 C -3,7 C 0,0 km/h (0 Bft)
09.03.2014 08:00 -3,7 C 88 % 1028,4 hPa 0,0 l/m 0,2 km/h (0 Bft) N 360 -5,4 C -3,6 C 0,0 km/h (0 Bft)
09.03.2014 08:05 -3,6 C 88 % 1028,4 hPa 0,0 l/m 0,0 km/h (0 Bft) N-NO 22 -5,3 C -2,9 C 0,0 km/h (0 Bft)
09.03.2014 08:10 -3,3 C 88 % 1028,5 hPa 0,0 l/m 0,0 km/h (0 Bft) N-NW 337 -5,0 C -0,4 C 0,0 km/h (0 Bft)
09.03.2014 08:15 -3,2 C 88 % 1028,5 hPa 0,0 l/m 0,0 km/h (0 Bft) N-NW 337 -4,9 C 1,5 C 0,0 km/h (0 Bft)
09.03.2014 08:18 -2,6 C 89 % 1028,5 hPa 0,0 l/m 0,0 km/h (0 Bft) W 270 -4,2 C 4,1 C 0,0 km/h (0 Bft)
09.03.2014 08:20 -2,6 C 89 % 1028,5 hPa 0,0 l/m 0,0 km/h (0 Bft) W 270 -4,2 C 4,1 C 0,0 km/h (0 Bft)
09.03.2014 08:25 -2,4 C 89 % 1028,5 hPa 0,0 l/m 0,0 km/h (0 Bft) W 270 -4,0 C 5,3 C 0,0 km/h (0 Bft)
09.03.2014 08:30 -2,2 C 89 % 1028,8 hPa 0,0 l/m 0,0 km/h (0 Bft) W-NW 292 -3,8 C 6,6 C 0,0 km/h (0 Bft)
09.03.2014 08:35 -1,9 C 89 % 1028,8 hPa 0,0 l/m 0,0 km/h (0 Bft) W-NW 292 -3,5 C 7,2 C 0,0 km/h (0 Bft)
09.03.2014 08:40 -1,5 C 89 % 1028,8 hPa 0,0 l/m 0,0 km/h (0 Bft) NO 45 -3,1 C 7,5 C 0,0 km/h (0 Bft)
09.03.2014 08:45 -1,2 C 89 % 1028,8 hPa 0,0 l/m 0,3 km/h (0 Bft) NO 45 -2,8 C 7,6 C 0,0 km/h (0 Bft)
09.03.2014 08:50 -0,9 C 89 % 1028,8 hPa 0,0 l/m 0,3 km/h (0 Bft) NO 45 -2,5 C 8,4 C 0,0 km/h (0 Bft)
09.03.2014 08:55 -0,7 C 89 % 1028,8 hPa 0,0 l/m 0,0 km/h (0 Bft) NO 45 -2,3 C 8,9 C 0,0 km/h (0 Bft)
09.03.2014 09:00 0,0 C 89 % 1028,8 hPa 0,0 l/m 0,3 km/h (0 Bft) O-NO 67 -1,6 C 9,4 C 0,0 km/h (0 Bft)
09.03.2014 09:05 0,0 C 89 % 1028,8 hPa 0,0 l/m 0,3 km/h (0 Bft) NO 45 -1,6 C 10,1 C 0,0 km/h (0 Bft)
09.03.2014 09:10 1,5 C 89 % 1028,9 hPa 0,0 l/m 0,0 km/h (0 Bft) O 90 -0,1 C 11,3 C 0,0 km/h (0 Bft)
09.03.2014 09:15 3,0 C 88 % 1028,9 hPa 0,0 l/m 0,0 km/h (0 Bft) SO 135 1,2 C 11,6 C 0,0 km/h (0 Bft)
09.03.2014 09:20 5,5 C 86 % 1028,9 hPa 0,0 l/m 0,0 km/h (0 Bft) W-SW 247 3,3 C 12,1 C 0,0 km/h (0 Bft)
09.03.2014 09:25 6,1 C 83 % 1028,9 hPa 0,0 l/m 0,0 km/h (0 Bft) W 270 3,4 C 12,6 C 0,0 km/h (0 Bft)
09.03.2014 09:30 6,9 C 80 % 1029,2 hPa 0,0 l/m 0,5 km/h (0 Bft) O-NO 67 3,7 C 13,2 C 2,6 km/h (1 Bft)
09.03.2014 09:35 7,7 C 80 % 1029,2 hPa 0,0 l/m 0,8 km/h (0 Bft) NO 45 4,5 C 12,9 C 0,0 km/h (0 Bft)
09.03.2014 09:40 7,2 C 78 % 1029,2 hPa 0,0 l/m 0,6 km/h (0 Bft) NO 45 3,6 C 12,9 C 0,0 km/h (0 Bft)
09.03.2014 09:45 6,8 C 79 % 1029,2 hPa 0,0 l/m 0,0 km/h (0 Bft) O-SO 112 3,4 C 13,0 C 0,0 km/h (0 Bft)
09.03.2014 09:50 7,6 C 72 % 1029,0 hPa 0,0 l/m 0,2 km/h (0 Bft) NO 45 2,9 C 12,3 C 2,3 km/h (1 Bft)
09.03.2014 09:55 8,0 C 73 % 1029,0 hPa 0,0 l/m 0,3 km/h (0 Bft) W 270 3,5 C 11,6 C 1,6 km/h (1 Bft)
09.03.2014 10:00 8,1 C 64 % 1029,0 hPa 0,0 l/m 1,9 km/h (1 Bft) O-SO 112 1,7 C 10,2 C 7,2 km/h (2 Bft)
09.03.2014 10:05 7,7 C 66 % 1029,0 hPa 0,0 l/m 2,7 km/h (1 Bft) W-NW 292 1,8 C 9,5 C 6,3 km/h (2 Bft)
09.03.2014 10:10 7,4 C 60 % 1029,4 hPa 0,0 l/m 2,9 km/h (1 Bft) N 360 0,2 C 8,4 C 3,4 km/h (1 Bft)
09.03.2014 10:15 7,2 C 59 % 1029,4 hPa 0,0 l/m 3,2 km/h (1 Bft) N 360 -0,3 C 8,2 C 1,8 km/h (1 Bft)
09.03.2014 10:20 8,5 C 60 % 1029,4 hPa 0,0 l/m 3,9 km/h (1 Bft) NW 315 1,2 C 8,3 C 3,2 km/h (1 Bft)
09.03.2014 10:25 9,0 C 63 % 1029,4 hPa 0,0 l/m 4,2 km/h (1 Bft) W-NW 292 2,3 C 8,8 C 6,0 km/h (2 Bft)
09.03.2014 10:30 9,3 C 51 % 1029,5 hPa 0,0 l/m 4,7 km/h (1 Bft) N 360 -0,3 C 9,7 C 7,6 km/h (2 Bft)
09.03.2014 10:35 10,0 C 59 % 1029,5 hPa 0,0 l/m 5,1 km/h (1 Bft) N-NW 337 2,4 C 10,7 C 5,3 km/h (1 Bft)
09.03.2014 10:40 10,5 C 56 % 1029,5 hPa 0,0 l/m 4,5 km/h (1 Bft) N-NW 337 2,1 C 12,2 C 8,2 km/h (2 Bft)
09.03.2014 10:45 10,4 C 56 % 1029,5 hPa 0,0 l/m 4,7 km/h (1 Bft) N 360 2,0 C 12,9 C 6,9 km/h (2 Bft)
09.03.2014 10:50 10,4 C 47 % 1029,6 hPa 0,0 l/m 5,3 km/h (1 Bft) N-NW 337 -0,4 C 13,5 C 8,4 km/h (2 Bft)
09.03.2014 10:55 10,6 C 45 % 1029,6 hPa 0,0 l/m 6,0 km/h (2 Bft) W-NW 292 -0,8 C 13,7 C 8,9 km/h (2 Bft)
09.03.2014 11:00 10,5 C 42 % 1029,6 hPa 0,0 l/m 6,4 km/h (2 Bft) NW 315 -1,9 C 13,1 C 10,3 km/h (2 Bft)
09.03.2014 11:05 11,0 C 43 % 1029,6 hPa 0,0 l/m 7,2 km/h (2 Bft) N-NW 337 -1,1 C 12,4 C 11,4 km/h (2 Bft)
09.03.2014 11:10 11,0 C 40 % 1029,6 hPa 0,0 l/m 7,1 km/h (2 Bft) N-NW 337 -2,1 C 12,6 C 12,7 km/h (3 Bft)
09.03.2014 11:15 11,4 C 39 % 1029,6 hPa 0,0 l/m 6,8 km/h (2 Bft) N-NW 337 -2,0 C 13,5 C 5,8 km/h (2 Bft)
09.03.2014 11:20 12,2 C 39 % 1029,6 hPa 0,0 l/m 6,0 km/h (2 Bft) W-NW 292 -1,3 C 14,1 C 7,2 km/h (2 Bft)
09.03.2014 11:25 12,1 C 37 % 1029,6 hPa 0,0 l/m 6,1 km/h (2 Bft) NW 315 -2,1 C 14,1 C 7,7 km/h (2 Bft)
09.03.2014 11:30 12,9 C 36 % 1029,7 hPa 0,0 l/m 6,3 km/h (2 Bft) N-NW 337 -1,8 C 14,1 C 7,4 km/h (2 Bft)
09.03.2014 11:35 13,3 C 33 % 1029,7 hPa 0,0 l/m 6,3 km/h (2 Bft) N 360 -2,6 C 14,2 C 6,1 km/h (2 Bft)
09.03.2014 11:40 13,2 C 31 % 1029,7 hPa 0,0 l/m 6,1 km/h (2 Bft) W 270 -3,5 C 14,5 C 4,8 km/h (1 Bft)
09.03.2014 11:45 13,1 C 30 % 1029,7 hPa 0,0 l/m 6,3 km/h (2 Bft) N-NW 337 -4,1 C 14,8 C 12,2 km/h (2 Bft)
09.03.2014 11:50 13,0 C 31 % 1029,8 hPa 0,0 l/m 7,2 km/h (2 Bft) NW 315 -3,7 C 13,9 C 9,7 km/h (2 Bft)
09.03.2014 11:55 12,8 C 34 % 1029,8 hPa 0,0 l/m 7,9 km/h (2 Bft) W-NW 292 -2,7 C 13,1 C 7,1 km/h (2 Bft)
09.03.2014 12:00 13,2 C 32 % 1029,8 hPa 0,0 l/m 6,9 km/h (2 Bft) N-NW 337 -3,1 C 14,0 C 5,6 km/h (1 Bft)
09.03.2014 12:05 12,6 C 34 % 1029,8 hPa 0,0 l/m 6,9 km/h (2 Bft) W-SW 247 -2,8 C 14,3 C 8,7 km/h (2 Bft)
09.03.2014 12:10 12,8 C 35 % 1029,9 hPa 0,0 l/m 7,1 km/h (2 Bft) W-NW 292 -2,3 C 14,0 C 13,7 km/h (3 Bft)
09.03.2014 12:15 12,6 C 35 % 1029,9 hPa 0,0 l/m 8,0 km/h (2 Bft) W-NW 292 -2,4 C 13,4 C 9,7 km/h (2 Bft)
09.03.2014 12:20 12,9 C 34 % 1029,9 hPa 0,0 l/m 8,0 km/h (2 Bft) W-NW 292 -2,6 C 13,4 C 14,5 km/h (3 Bft)
09.03.2014 12:25 12,8 C 34 % 1029,9 hPa 0,0 l/m 7,9 km/h (2 Bft) NW 315 -2,7 C 13,4 C 13,2 km/h (3 Bft)
09.03.2014 12:30 12,7 C 34 % 1029,8 hPa 0,0 l/m 8,5 km/h (2 Bft) N-NW 337 -2,7 C 13,0 C 10,9 km/h (2 Bft)
09.03.2014 12:35 12,6 C 35 % 1029,8 hPa 0,0 l/m 8,5 km/h (2 Bft) N 360 -2,4 C 13,2 C 6,0 km/h (2 Bft)
09.03.2014 12:40 13,1 C 34 % 1029,8 hPa 0,0 l/m 7,7 km/h (2 Bft) N 360 -2,4 C 14,1 C 14,8 km/h (3 Bft)
09.03.2014 12:45 13,4 C 33 % 1029,8 hPa 0,0 l/m 6,8 km/h (2 Bft) N-NW 337 -2,5 C 15,0 C 7,6 km/h (2 Bft)
09.03.2014 12:50 13,0 C 33 % 1029,8 hPa 0,0 l/m 7,2 km/h (2 Bft) NW 315 -2,9 C 14,6 C 8,9 km/h (2 Bft)
09.03.2014 12:55 13,1 C 33 % 1029,8 hPa 0,0 l/m 7,1 km/h (2 Bft) W 270 -2,8 C 15,0 C 7,9 km/h (2 Bft)
09.03.2014 13:00 13,2 C 34 % 1029,8 hPa 0,0 l/m 6,9 km/h (2 Bft) N 360 -2,3 C 15,3 C 7,6 km/h (2 Bft)
09.03.2014 13:05 13,5 C 33 % 1029,8 hPa 0,0 l/m 7,2 km/h (2 Bft) W-NW 292 -2,4 C 15,4 C 7,4 km/h (2 Bft)
09.03.2014 13:10 13,8 C 35 % 1029,6 hPa 0,0 l/m 6,9 km/h (2 Bft) N 360 -1,4 C 15,8 C 12,7 km/h (3 Bft)
09.03.2014 13:15 13,9 C 34 % 1029,6 hPa 0,0 l/m 7,1 km/h (2 Bft) N-NW 337 -1,7 C 15,7 C 8,2 km/h (2 Bft)
09.03.2014 13:18 13,7 C 33 % 1029,6 hPa 0,0 l/m 6,9 km/h (2 Bft) N-NW 337 -2,3 C 15,9 C 7,4 km/h (2 Bft)
09.03.2014 13:20 13,7 C 33 % 1029,6 hPa 0,0 l/m 6,9 km/h (2 Bft) N-NW 337 -2,3 C 15,9 C 7,4 km/h (2 Bft)
09.03.2014 13:25 13,7 C 33 % 1029,6 hPa 0,0 l/m 7,2 km/h (2 Bft) W-NW 292 -2,3 C 15,8 C 7,9 km/h (2 Bft)
09.03.2014 13:30 14,0 C 32 % 1029,3 hPa 0,0 l/m 7,4 km/h (2 Bft) NW 315 -2,4 C 15,6 C 7,7 km/h (2 Bft)
09.03.2014 13:35 14,0 C 32 % 1029,3 hPa 0,0 l/m 7,4 km/h (2 Bft) N-NW 337 -2,4 C 15,6 C 7,4 km/h (2 Bft)
09.03.2014 13:40 14,4 C 33 % 1029,3 hPa 0,0 l/m 7,1 km/h (2 Bft) N-NW 337 -1,7 C 15,7 C 4,8 km/h (1 Bft)
09.03.2014 13:45 14,5 C 33 % 1029,3 hPa 0,0 l/m 6,6 km/h (2 Bft) NO 45 -1,6 C 16,5 C 11,7 km/h (2 Bft)
09.03.2014 13:50 14,7 C 31 % 1029,1 hPa 0,0 l/m 6,9 km/h (2 Bft) N-NW 337 -2,2 C 16,5 C 7,4 km/h (2 Bft)
09.03.2014 13:55 14,7 C 31 % 1029,1 hPa 0,0 l/m 6,6 km/h (2 Bft) N-NW 337 -2,2 C 17,0 C 12,4 km/h (3 Bft)
09.03.2014 14:00 14,9 C 30 % 1029,1 hPa 0,0 l/m 6,0 km/h (2 Bft) N 360 -2,5 C 17,2 C 8,7 km/h (2 Bft)
09.03.2014 14:05 14,9 C 30 % 1029,1 hPa 0,0 l/m 6,8 km/h (2 Bft) W 270 -2,5 C 16,9 C 6,4 km/h (2 Bft)
09.03.2014 14:10 15,1 C 30 % 1029,2 hPa 0,0 l/m 6,9 km/h (2 Bft) N-NO 22 -2,3 C 16,9 C 8,5 km/h (2 Bft)
09.03.2014 14:15 14,9 C 30 % 1029,2 hPa 0,0 l/m 7,4 km/h (2 Bft) N-NW 337 -2,5 C 16,6 C 7,6 km/h (2 Bft)
09.03.2014 14:20 14,9 C 30 % 1029,2 hPa 0,0 l/m 8,2 km/h (2 Bft) NW 315 -2,5 C 16,2 C 16,3 km/h (3 Bft)
09.03.2014 14:25 14,9 C 30 % 1029,2 hPa 0,0 l/m 7,9 km/h (2 Bft) N 360 -2,5 C 16,2 C 7,9 km/h (2 Bft)
09.03.2014 14:30 15,0 C 30 % 1029,0 hPa 0,0 l/m 7,9 km/h (2 Bft) N 360 -2,4 C 16,4 C 7,9 km/h (2 Bft)
09.03.2014 14:35 15,0 C 30 % 1029,0 hPa 0,0 l/m 7,4 km/h (2 Bft) N 360 -2,4 C 16,6 C 4,8 km/h (1 Bft)
09.03.2014 14:40 14,6 C 30 % 1029,0 hPa 0,0 l/m 7,6 km/h (2 Bft) N 360 -2,8 C 16,5 C 5,8 km/h (2 Bft)
09.03.2014 14:45 15,1 C 30 % 1029,0 hPa 0,0 l/m 7,2 km/h (2 Bft) N 360 -2,3 C 16,9 C 10,1 km/h (2 Bft)
09.03.2014 14:50 14,9 C 30 % 1028,8 hPa 0,0 l/m 6,9 km/h (2 Bft) W-NW 292 -2,5 C 17,1 C 6,4 km/h (2 Bft)
09.03.2014 14:55 14,7 C 30 % 1028,8 hPa 0,0 l/m 8,2 km/h (2 Bft) N-NW 337 -2,7 C 16,3 C 12,2 km/h (2 Bft)
09.03.2014 15:00 14,7 C 30 % 1028,8 hPa 0,0 l/m 7,9 km/h (2 Bft) N 360 -2,7 C 16,2 C 9,3 km/h (2 Bft)
09.03.2014 15:05 14,8 C 30 % 1028,8 hPa 0,0 l/m 7,1 km/h (2 Bft) NW 315 -2,6 C 16,7 C 9,3 km/h (2 Bft)
09.03.2014 15:10 14,9 C 30 % 1028,6 hPa 0,0 l/m 6,9 km/h (2 Bft) N-NW 337 -2,5 C 17,1 C 13,4 km/h (3 Bft)
09.03.2014 15:15 14,8 C 30 % 1028,6 hPa 0,0 l/m 6,8 km/h (2 Bft) N 360 -2,6 C 17,3 C 9,8 km/h (2 Bft)
09.03.2014 15:20 14,6 C 30 % 1028,6 hPa 0,0 l/m 6,1 km/h (2 Bft) N-NW 337 -2,8 C 17,5 C 7,6 km/h (2 Bft)
09.03.2014 15:25 14,6 C 30 % 1028,6 hPa 0,0 l/m 6,0 km/h (2 Bft) N-NW 337 -2,8 C 17,5 C 8,0 km/h (2 Bft)
09.03.2014 15:30 14,6 C 30 % 1028,5 hPa 0,0 l/m 6,6 km/h (2 Bft) N-NW 337 -2,8 C 17,5 C 9,3 km/h (2 Bft)
09.03.2014 15:35 14,4 C 30 % 1028,5 hPa 0,0 l/m 6,8 km/h (2 Bft) N-NW 337 -2,9 C 17,2 C 9,5 km/h (2 Bft)
09.03.2014 15:40 14,3 C 30 % 1028,5 hPa 0,0 l/m 6,9 km/h (2 Bft) NW 315 -3,0 C 16,9 C 7,4 km/h (2 Bft)
09.03.2014 15:45 14,3 C 30 % 1028,5 hPa 0,0 l/m 7,1 km/h (2 Bft) N-NW 337 -3,0 C 16,6 C 9,7 km/h (2 Bft)
09.03.2014 15:50 13,9 C 30 % 1028,1 hPa 0,0 l/m 6,1 km/h (2 Bft) N 360 -3,4 C 17,3 C 8,9 km/h (2 Bft)
09.03.2014 15:55 13,6 C 30 % 1028,1 hPa 0,0 l/m 5,6 km/h (1 Bft) O 90 -3,6 C 17,3 C 8,9 km/h (2 Bft)
09.03.2014 16:00 13,1 C 30 % 1028,1 hPa 0,0 l/m 6,4 km/h (2 Bft) N-NW 337 -4,1 C 17,3 C 7,7 km/h (2 Bft)
09.03.2014 16:05 12,7 C 33 % 1028,1 hPa 0,0 l/m 6,8 km/h (2 Bft) N-NW 337 -3,1 C 17,0 C 7,4 km/h (2 Bft)
09.03.2014 16:10 12,5 C 33 % 1027,9 hPa 0,0 l/m 5,5 km/h (1 Bft) NW 315 -3,3 C 17,5 C 4,3 km/h (1 Bft)
09.03.2014 16:15 12,3 C 34 % 1027,9 hPa 0,0 l/m 5,8 km/h (2 Bft) W-NW 292 -3,1 C 17,3 C 7,2 km/h (2 Bft)
09.03.2014 16:20 12,0 C 35 % 1027,9 hPa 0,0 l/m 6,0 km/h (2 Bft) N 360 -3,0 C 17,2 C 6,0 km/h (2 Bft)
09.03.2014 16:25 12,1 C 35 % 1027,9 hPa 0,0 l/m 5,8 km/h (2 Bft) NO 45 -2,9 C 17,2 C 8,5 km/h (2 Bft)
09.03.2014 16:30 11,9 C 36 % 1027,8 hPa 0,0 l/m 5,6 km/h (1 Bft) N 360 -2,7 C 17,0 C 4,8 km/h (1 Bft)
09.03.2014 16:35 12,1 C 35 % 1027,8 hPa 0,0 l/m 5,6 km/h (1 Bft) O-NO 67 -2,9 C 16,9 C 6,6 km/h (2 Bft)
09.03.2014 16:40 11,9 C 36 % 1027,8 hPa 0,0 l/m 5,6 km/h (1 Bft) N 360 -2,7 C 16,7 C 7,1 km/h (2 Bft)
09.03.2014 16:45 11,7 C 37 % 1027,8 hPa 0,0 l/m 5,8 km/h (2 Bft) N 360 -2,5 C 16,6 C 6,6 km/h (2 Bft)
09.03.2014 16:50 11,1 C 38 % 1027,7 hPa 0,0 l/m 5,6 km/h (1 Bft) N-NO 22 -2,7 C 16,3 C 2,6 km/h (1 Bft)
09.03.2014 16:55 11,0 C 38 % 1027,7 hPa 0,0 l/m 5,3 km/h (1 Bft) N-NO 22 -2,8 C 16,2 C 4,7 km/h (1 Bft)
09.03.2014 17:00 10,7 C 39 % 1027,7 hPa 0,0 l/m 5,0 km/h (1 Bft) N-NW 337 -2,7 C 15,9 C 5,0 km/h (1 Bft)
09.03.2014 17:05 10,5 C 40 % 1027,7 hPa 0,0 l/m 5,1 km/h (1 Bft) NW 315 -2,5 C 15,8 C 7,2 km/h (2 Bft)
09.03.2014 17:10 10,6 C 39 % 1027,6 hPa 0,0 l/m 5,5 km/h (1 Bft) N-NO 22 -2,8 C 15,3 C 7,2 km/h (2 Bft)
09.03.2014 17:15 10,2 C 40 % 1027,6 hPa 0,0 l/m 6,0 km/h (2 Bft) N-NO 22 -2,8 C 15,1 C 6,0 km/h (2 Bft)
09.03.2014 17:20 9,6 C 42 % 1027,6 hPa 0,0 l/m 5,3 km/h (1 Bft) NW 315 -2,7 C 14,8 C 6,9 km/h (2 Bft)
09.03.2014 17:25 9,5 C 43 % 1027,6 hPa 0,0 l/m 4,8 km/h (1 Bft) NW 315 -2,4 C 14,6 C 6,1 km/h (2 Bft)
09.03.2014 17:30 9,4 C 44 % 1027,2 hPa 0,0 l/m 4,2 km/h (1 Bft) O-NO 67 -2,2 C 14,4 C 5,3 km/h (1 Bft)
09.03.2014 17:35 9,1 C 44 % 1027,2 hPa 0,0 l/m 3,4 km/h (1 Bft) N-NO 22 -2,5 C 14,2 C 4,5 km/h (1 Bft)
09.03.2014 17:40 8,8 C 46 % 1027,2 hPa 0,0 l/m 2,9 km/h (1 Bft) O-NO 67 -2,2 C 13,9 C 4,2 km/h (1 Bft)
09.03.2014 17:45 8,6 C 47 % 1027,2 hPa 0,0 l/m 3,1 km/h (1 Bft) NO 45 -2,1 C 13,6 C 2,4 km/h (1 Bft)
09.03.2014 17:50 8,7 C 47 % 1027,4 hPa 0,0 l/m 3,7 km/h (1 Bft) NO 45 -2,0 C 12,9 C 4,2 km/h (1 Bft)
09.03.2014 17:55 8,6 C 48 % 1027,4 hPa 0,0 l/m 3,5 km/h (1 Bft) N-NO 22 -1,8 C 12,4 C 6,0 km/h (2 Bft)
09.03.2014 18:00 8,1 C 49 % 1027,4 hPa 0,0 l/m 3,1 km/h (1 Bft) NO 45 -2,0 C 11,3 C 5,0 km/h (1 Bft)
09.03.2014 18:05 7,8 C 50 % 1027,4 hPa 0,0 l/m 3,7 km/h (1 Bft) N 360 -2,0 C 10,5 C 3,9 km/h (1 Bft)
09.03.2014 18:10 7,6 C 51 % 1027,4 hPa 0,0 l/m 4,2 km/h (1 Bft) NO 45 -1,9 C 9,2 C 6,4 km/h (2 Bft)
09.03.2014 18:15 7,4 C 52 % 1027,4 hPa 0,0 l/m 4,7 km/h (1 Bft) N 360 -1,8 C 8,4 C 6,4 km/h (2 Bft)
09.03.2014 18:18 7,2 C 52 % 1027,4 hPa 0,0 l/m 5,0 km/h (1 Bft) O 90 -2,0 C 7,9 C 6,3 km/h (2 Bft)
09.03.2014 18:20 7,2 C 52 % 1027,4 hPa 0,0 l/m 5,0 km/h (1 Bft) O 90 -2,0 C 7,9 C 6,3 km/h (2 Bft)
09.03.2014 18:25 7,3 C 53 % 1027,4 hPa 0,0 l/m 5,0 km/h (1 Bft) O-NO 67 -1,6 C 7,6 C 5,8 km/h (2 Bft)
09.03.2014 18:30 6,8 C 54 % 1027,4 hPa 0,0 l/m 4,8 km/h (1 Bft) NO 45 -1,8 C 7,1 C 6,8 km/h (2 Bft)
09.03.2014 18:35 6,7 C 55 % 1027,4 hPa 0,0 l/m 4,5 km/h (1 Bft) NO 45 -1,7 C 6,9 C 6,0 km/h (2 Bft)
09.03.2014 18:40 6,8 C 55 % 1027,4 hPa 0,0 l/m 5,0 km/h (1 Bft) NO 45 -1,6 C 6,7 C 6,6 km/h (2 Bft)
09.03.2014 18:45 6,6 C 55 % 1027,4 hPa 0,0 l/m 5,3 km/h (1 Bft) O 90 -1,8 C 6,3 C 5,5 km/h (1 Bft)
09.03.2014 18:50 6,4 C 56 % 1027,5 hPa 0,0 l/m 5,1 km/h (1 Bft) O 90 -1,7 C 6,3 C 3,9 km/h (1 Bft)
09.03.2014 18:55 6,2 C 56 % 1027,5 hPa 0,0 l/m 5,0 km/h (1 Bft) O-NO 67 -1,9 C 6,1 C 4,8 km/h (1 Bft)
09.03.2014 19:00 6,1 C 57 % 1027,5 hPa 0,0 l/m 4,5 km/h (1 Bft) O-NO 67 -1,8 C 5,8 C 3,9 km/h (1 Bft)
09.03.2014 19:05 6,0 C 57 % 1027,5 hPa 0,0 l/m 4,3 km/h (1 Bft) NO 45 -1,9 C 5,8 C 3,7 km/h (1 Bft)
09.03.2014 19:10 6,1 C 58 % 1027,5 hPa 0,0 l/m 4,0 km/h (1 Bft) NO 45 -1,5 C 5,7 C 4,8 km/h (1 Bft)
09.03.2014 19:15 6,0 C 58 % 1027,5 hPa 0,0 l/m 4,0 km/h (1 Bft) O-NO 67 -1,6 C 5,7 C 4,0 km/h (1 Bft)
09.03.2014 19:20 5,8 C 59 % 1027,5 hPa 0,0 l/m 3,9 km/h (1 Bft) O-NO 67 -1,6 C 5,6 C 3,9 km/h (1 Bft)
09.03.2014 19:25 5,3 C 59 % 1027,5 hPa 0,0 l/m 2,7 km/h (1 Bft) NO 45 -2,0 C 5,7 C 0,0 km/h (0 Bft)
09.03.2014 19:30 5,0 C 61 % 1027,3 hPa 0,0 l/m 1,8 km/h (1 Bft) NO 45 -1,9 C 5,1 C 3,5 km/h (1 Bft)
09.03.2014 19:35 5,5 C 61 % 1027,3 hPa 0,0 l/m 2,7 km/h (1 Bft) NO 45 -1,4 C 5,1 C 4,7 km/h (1 Bft)
09.03.2014 19:40 5,4 C 61 % 1027,3 hPa 0,0 l/m 3,7 km/h (1 Bft) O-NO 67 -1,5 C 4,9 C 2,7 km/h (1 Bft)
09.03.2014 19:45 5,4 C 62 % 1027,3 hPa 0,0 l/m 3,1 km/h (1 Bft) NO 45 -1,3 C 4,9 C 3,9 km/h (1 Bft)
09.03.2014 19:50 3,9 C 61 % 1027,2 hPa 0,0 l/m 1,3 km/h (1 Bft) NO 45 -2,9 C 4,4 C 0,0 km/h (0 Bft)
09.03.2014 19:55 3,1 C 62 % 1027,2 hPa 0,0 l/m 0,5 km/h (0 Bft) S-SO 157 -3,5 C 3,8 C 0,0 km/h (0 Bft)
09.03.2014 20:00 2,6 C 64 % 1027,2 hPa 0,0 l/m 0,0 km/h (0 Bft) S-SO 157 -3,5 C 3,0 C 0,0 km/h (0 Bft)
09.03.2014 20:05 2,3 C 65 % 1027,2 hPa 0,0 l/m 0,0 km/h (0 Bft) S-SO 157 -3,6 C 2,7 C 0,0 km/h (0 Bft)
09.03.2014 20:10 1,9 C 66 % 1027,2 hPa 0,0 l/m 0,0 km/h (0 Bft) S-SO 157 -3,8 C 2,2 C 0,0 km/h (0 Bft)
09.03.2014 20:15 1,8 C 67 % 1027,2 hPa 0,0 l/m 0,0 km/h (0 Bft) S-SO 157 -3,7 C 1,9 C 0,0 km/h (0 Bft)
09.03.2014 20:20 1,6 C 68 % 1027,2 hPa 0,0 l/m 0,0 km/h (0 Bft) S-SO 157 -3,7 C 1,7 C 0,0 km/h (0 Bft)
09.03.2014 20:25 1,7 C 69 % 1027,2 hPa 0,0 l/m 0,0 km/h (0 Bft) O-NO 67 -3,4 C 1,4 C 0,0 km/h (0 Bft)
09.03.2014 20:30 1,6 C 69 % 1026,9 hPa 0,0 l/m 0,0 km/h (0 Bft) NO 45 -3,5 C 1,6 C 0,0 km/h (0 Bft)
09.03.2014 20:35 1,6 C 70 % 1026,9 hPa 0,0 l/m 0,0 km/h (0 Bft) NO 45 -3,3 C 1,7 C 0,0 km/h (0 Bft)
09.03.2014 20:40 1,7 C 72 % 1026,9 hPa 0,0 l/m 0,3 km/h (0 Bft) N-NO 22 -2,8 C 2,0 C 0,0 km/h (0 Bft)
09.03.2014 20:45 1,4 C 72 % 1026,9 hPa 0,0 l/m 0,3 km/h (0 Bft) NO 45 -3,1 C 1,9 C 0,0 km/h (0 Bft)
09.03.2014 20:50 0,8 C 72 % 1026,8 hPa 0,0 l/m 0,0 km/h (0 Bft) N-NO 22 -3,7 C 1,4 C 0,0 km/h (0 Bft)
09.03.2014 20:55 0,6 C 72 % 1026,8 hPa 0,0 l/m 0,0 km/h (0 Bft) N-NO 22 -3,9 C 1,1 C 0,0 km/h (0 Bft)
09.03.2014 21:00 0,5 C 73 % 1026,8 hPa 0,0 l/m 0,0 km/h (0 Bft) N-NO 22 -3,8 C 0,7 C 0,0 km/h (0 Bft)
09.03.2014 21:05 0,5 C 74 % 1026,8 hPa 0,0 l/m 0,0 km/h (0 Bft) NO 45 -3,6 C 0,5 C 0,0 km/h (0 Bft)
09.03.2014 21:10 0,5 C 75 % 1026,8 hPa 0,0 l/m 0,0 km/h (0 Bft) NO 45 -3,4 C 0,4 C 0,0 km/h (0 Bft)
09.03.2014 21:15 0,4 C 75 % 1026,8 hPa 0,0 l/m 0,0 km/h (0 Bft) NO 45 -3,5 C 0,5 C 0,0 km/h (0 Bft)
09.03.2014 21:20 0,4 C 76 % 1026,8 hPa 0,0 l/m 0,0 km/h (0 Bft) NO 45 -3,3 C 0,3 C 0,0 km/h (0 Bft)
09.03.2014 21:25 0,6 C 76 % 1026,8 hPa 0,0 l/m 0,0 km/h (0 Bft) NO 45 -3,1 C 0,2 C 0,0 km/h (0 Bft)
09.03.2014 21:30 0,3 C 77 % 1026,8 hPa 0,0 l/m 0,0 km/h (0 Bft) NO 45 -3,2 C 0,1 C 0,0 km/h (0 Bft)
09.03.2014 21:35 0,2 C 77 % 1026,8 hPa 0,0 l/m 0,0 km/h (0 Bft) NO 45 -3,3 C 0,0 C 0,0 km/h (0 Bft)
09.03.2014 21:40 0,1 C 77 % 1026,8 hPa 0,0 l/m 0,0 km/h (0 Bft) NO 45 -3,4 C -0,2 C 0,0 km/h (0 Bft)
09.03.2014 21:45 -0,2 C 77 % 1026,8 hPa 0,0 l/m 0,0 km/h (0 Bft) NO 45 -3,7 C -0,3 C 0,0 km/h (0 Bft)
09.03.2014 21:50 -0,3 C 77 % 1026,4 hPa 0,0 l/m 0,0 km/h (0 Bft) N-NO 22 -3,8 C -0,5 C 0,0 km/h (0 Bft)
09.03.2014 21:55 -0,4 C 78 % 1026,4 hPa 0,0 l/m 0,0 km/h (0 Bft) N-NO 22 -3,8 C -0,6 C 0,0 km/h (0 Bft)
09.03.2014 22:00 -0,4 C 78 % 1026,4 hPa 0,0 l/m 0,0 km/h (0 Bft) N-NO 22 -3,8 C -0,7 C 0,0 km/h (0 Bft)
09.03.2014 22:05 -0,4 C 78 % 1026,4 hPa 0,0 l/m 0,0 km/h (0 Bft) N 360 -3,8 C -0,9 C 0,0 km/h (0 Bft)
09.03.2014 22:10 -0,5 C 79 % 1026,2 hPa 0,0 l/m 0,0 km/h (0 Bft) N 360 -3,7 C -1,0 C 0,0 km/h (0 Bft)
09.03.2014 22:15 -0,9 C 79 % 1026,2 hPa 0,0 l/m 0,0 km/h (0 Bft) N-NO 22 -4,1 C -1,0 C 0,0 km/h (0 Bft)
09.03.2014 22:20 -0,7 C 79 % 1026,2 hPa 0,0 l/m 0,0 km/h (0 Bft) N 360 -3,9 C -1,2 C 0,0 km/h (0 Bft)
09.03.2014 22:25 -0,7 C 79 % 1026,2 hPa 0,0 l/m 0,0 km/h (0 Bft) N 360 -3,9 C -1,2 C 0,0 km/h (0 Bft)
09.03.2014 22:30 -1,1 C 79 % 1026,1 hPa 0,0 l/m 0,0 km/h (0 Bft) N 360 -4,3 C -1,2 C 0,0 km/h (0 Bft)
09.03.2014 22:35 -1,1 C 80 % 1026,1 hPa 0,0 l/m 0,0 km/h (0 Bft) N 360 -4,1 C -1,3 C 0,0 km/h (0 Bft)
09.03.2014 22:40 -1,2 C 80 % 1026,1 hPa 0,0 l/m 0,0 km/h (0 Bft) N 360 -4,2 C -1,5 C 0,0 km/h (0 Bft)
09.03.2014 22:45 -1,1 C 80 % 1026,1 hPa 0,0 l/m 0,0 km/h (0 Bft) N-NO 22 -4,1 C -1,6 C 0,0 km/h (0 Bft)
09.03.2014 22:50 -1,3 C 80 % 1025,6 hPa 0,0 l/m 0,0 km/h (0 Bft) N 360 -4,3 C -1,6 C 0,0 km/h (0 Bft)
09.03.2014 22:55 -1,6 C 80 % 1025,6 hPa 0,0 l/m 0,0 km/h (0 Bft) N 360 -4,6 C -1,6 C 0,0 km/h (0 Bft)
09.03.2014 23:00 -1,8 C 80 % 1025,6 hPa 0,0 l/m 0,0 km/h (0 Bft) N 360 -4,8 C -1,8 C 0,0 km/h (0 Bft)
09.03.2014 23:05 -1,8 C 81 % 1025,6 hPa 0,0 l/m 0,0 km/h (0 Bft) N 360 -4,6 C -2,0 C 0,0 km/h (0 Bft)
09.03.2014 23:10 -2,0 C 81 % 1025,6 hPa 0,0 l/m 0,0 km/h (0 Bft) N-NO 22 -4,8 C -2,1 C 0,0 km/h (0 Bft)
09.03.2014 23:15 -2,0 C 81 % 1025,6 hPa 0,0 l/m 0,0 km/h (0 Bft) N-NO 22 -4,8 C -2,1 C 0,0 km/h (0 Bft)
09.03.2014 23:19 -1,0 C 84 % 1025,6 hPa 0,0 l/m 0,2 km/h (0 Bft) O-SO 112 -3,4 C -2,1 C 0,0 km/h (0 Bft)
09.03.2014 23:20 -1,0 C 84 % 1025,6 hPa 0,0 l/m 0,2 km/h (0 Bft) O-SO 112 -3,4 C -2,1 C 0,0 km/h (0 Bft)
09.03.2014 23:25 -1,2 C 84 % 1025,6 hPa 0,0 l/m 0,2 km/h (0 Bft) N 360 -3,5 C -2,1 C 0,0 km/h (0 Bft)
09.03.2014 23:30 -1,6 C 84 % 1025,4 hPa 0,0 l/m 0,0 km/h (0 Bft) O-SO 112 -3,9 C -2,2 C 0,0 km/h (0 Bft)
09.03.2014 23:35 -0,3 C 86 % 1025,4 hPa 0,0 l/m 1,1 km/h (1 Bft) O-NO 67 -2,3 C -2,0 C 7,4 km/h (2 Bft)
09.03.2014 23:40 -0,6 C 86 % 1025,4 hPa 0,0 l/m 1,8 km/h (1 Bft) O-NO 67 -2,6 C -1,6 C 0,0 km/h (0 Bft)
09.03.2014 23:45 -1,2 C 85 % 1025,4 hPa 0,0 l/m 1,1 km/h (1 Bft) O-NO 67 -3,4 C -1,8 C 0,0 km/h (0 Bft)
09.03.2014 23:50 -1,4 C 85 % 1025,2 hPa 0,0 l/m 0,0 km/h (0 Bft) O-SO 112 -3,6 C -1,9 C 0,0 km/h (0 Bft)
09.03.2014 23:55 -1,9 C 85 % 1025,2 hPa 0,0 l/m 0,0 km/h (0 Bft) O-SO 112 -4,1 C -2,1 C 0,0 km/h (0 Bft)
_ Min-Zeit 07:25 16:00 23:55 - 23:55 - - 07:25 06:25 23:55
Minimum _ -4,8 C 30 % 1025,2 hPa - 0,0 km/h (0 Bft) - - -6,6 C -5,0 C 0,0 km/h (0 Bft)
_ Max-Zeit 14:45 09:10 12:25 23:55 12:35 - - 09:35 15:30 14:20
Maximum _ 15,1 C 89 % 1029,9 hPa 0,0 l/m 8,5 km/h
N (2 Bft)
- - 4,5 C 17,5 C 16,3 km/h
NW (3 Bft)
Durchschnitt _ 3,5 C 66 % 1028,2 hPa #0,0 l/m 2,4 km/h (1 Bft) N-NW - -3,5 C 4,8 C 3,1 km/h (1 Bft)